Back to catalog

CZ-6A DEB

AliveSSO
NORAD 54543·DEBRIS·🇨🇳 China

Launched Nov 11, 2022 from Taiyuan Satellite Launch Center

Loading…

Next Passes (next 24 hours)

TLE

FreshSource: Space-Track

Epoch: Sep 14, 2026, 03:53 UTC

1 54543U 22151KT  26257.16240932  .00001434  00000-0  33962-3 0  9999
2 54543  98.7282 336.2690 0110282  49.7375 311.3400 14.52073331202428

Track CZ-6A DEB in real time with AllMySat

Download on the App Store